• Join FlightAware (Why Join?)
  • Login
  • US Flag 
08:15PM EDT


 

Airport Tracker/Info


-or-


 

Live Flight TrackerFlight Track Log ✈ SKW6492 ✈ 16-Oct-2013 ✈ KDEN - KCOD

Flight Track Log - Related Links

Times and Time Zones

All times are in EDT time to prevent confusion due to time zone crossing. See the SKW6492 flight status page for this flight to view local times or setup timezone preferences in your user account.

Time Position Orientation Groundspeed Altitude Reporting Facility
EDT Latitude Longitude Course Direction KTS MPH feet Rate Location/Type
09:27PM 39.9333 -104.6833 13° North 182 209 7,000  Level Denver TRACON
09:27PM 39.9600 -104.6786 North 198 228 8,200 1,980 Climbing Denver Center
09:28PM 40.0297 -104.6619 10° North 253 291 10,300 2,220 Climbing Denver Center
09:29PM 40.2057 -104.9687 346° North  Level Estimated
09:29PM 40.1136 -104.6725 355° North 281 323 12,800  Level Denver Center
09:30PM 40.2916 -105.0431 348° North  Level Estimated
09:30PM 40.1942 -104.6944 348° North 295 339 14,900  Level Denver Center
09:31PM 40.3775 -105.1176 346° North  Level Estimated
09:31PM 40.2811 -104.7175 349° North 315 362 17,000  Level Denver Center
09:32PM 40.4779 -105.0882 13° North  Level FlightAware Approximate
09:32PM 40.3756 -104.7428 348° North 319 367 19,200  Level Denver Center
09:33PM 40.4636 -104.7644 349° North 325 374 20,600 1,320 Climbing Denver Center
09:34PM 40.5647 -104.7922 348° North 345 397 22,000 1,260 Climbing Denver Center
09:35PM 40.6617 -104.8172 349° North 356 410 23,300 1,200 Climbing Denver Center
09:36PM 40.7583 -104.8444 348° North 349 402 24,600 1,200 Climbing Denver Center
09:37PM 40.8531 -104.8806 344° North 350 403 25,900 1,080 Climbing Denver Center
09:39PM 40.9469 -104.9289 339° North 357 411 26,900 960 Climbing Denver Center
09:40PM 41.0575 -104.9811 340° North 364 419 28,000 720 Climbing Denver Center
09:41PM 41.1519 -105.0278 340° North 374 430 28,500 600 Climbing Denver Center
09:42PM 41.2639 -105.0839 339° North 383 441 29,300 720 Climbing Denver Center
09:43PM 41.3608 -105.1336 339° North 387 445 30,100 720 Climbing Denver Center
09:44PM 41.4739 -105.1903 339° North 389 448 30,800 480 Climbing Denver Center
09:45PM 41.5717 -105.2425 338° Northwest 393 452 31,200 420 Climbing Denver Center
09:46PM 41.6531 -105.3325 320° Northwest 396 456 31,700 360 Climbing Denver Center
09:47PM 41.7500 -105.4372 321° Northwest 399 459 32,000 120 Climbing Denver Center
09:48PM 41.8353 -105.5281 322° Northwest 406 467 32,000  Level Denver Center
09:49PM 41.9361 -105.6378 321° Northwest 416 479 32,000  Level Denver Center
09:50PM 42.0225 -105.7325 321° Northwest 417 480 32,000  Level Denver Center
09:51PM 42.1225 -105.8431 321° Northwest 415 478 32,000  Level Denver Center
09:52PM 42.2075 -105.9386 320° Northwest 413 475 32,000  Level Denver Center
09:53PM 42.2947 -106.0342 321° Northwest 418 481 32,000  Level Denver Center
09:54PM 42.3967 -106.1456 321° Northwest 421 484 32,000  Level Denver Center
09:55PM 42.4833 -106.2436 320° Northwest 423 487 32,000  Level Denver Center
09:56PM 42.5836 -106.3553 321° Northwest 420 483 32,000  Level Denver Center
09:57PM 42.6706 -106.4533 320° Northwest 424 488 32,000  Level Denver Center
09:58PM 42.7706 -106.5678 320° Northwest 420 483 32,000  Level Denver Center
09:59PM 42.8583 -106.6658 321° Northwest 425 489 32,000  Level Denver Center
10:00PM 42.9586 -106.7822 320° Northwest 423 487 32,000  Level Denver Center
10:01PM 43.0456 -106.8814 320° Northwest 424 488 32,000  Level Denver Center
10:02PM 43.1044 -106.9481 320° Northwest 427 491 32,000  Level Salt Lake Center
10:03PM 43.1819 -107.0403 319° Northwest 427 491 32,000  Level Salt Lake Center
10:04PM 43.2914 -107.1653 320° Northwest 428 493 32,000  Level Salt Lake Center
10:05PM 43.3814 -107.2700 320° Northwest 426 490 32,000  Level Salt Lake Center
10:06PM 43.4714 -107.3758 320° Northwest 427 491 32,000  Level Salt Lake Center
10:07PM 43.5625 -107.4828 320° Northwest 429 494 32,000  Level Salt Lake Center
10:08PM 43.6528 -107.5892 320° Northwest 429 494 32,000  Level Salt Lake Center
10:09PM 43.7442 -107.6961 320° Northwest 430 495 32,000 -720 Level Salt Lake Center
10:10PM 43.8353 -107.8031 320° Northwest 429 494 30,600 -2,400 Descending Salt Lake Center
10:11PM 43.9408 -107.9300 319° Northwest 419 482 27,100 -3,180 Descending Salt Lake Center
10:12PM 44.0197 -108.0344 316° Northwest 399 459 24,200 -2,880 Descending Salt Lake Center
10:13PM 44.0908 -108.1408 313° West 378 435 21,300 -2,640 Descending Salt Lake Center
10:14PM 44.1581 -108.2469 311° West 371 427 18,900 -2,100 Descending Salt Lake Center
10:15PM 44.2253 -108.3497 312° West 365 420 17,000 -2,040 Descending Salt Lake Center
10:16PM 44.2903 -108.4481 313° West 357 411 14,800 -2,100 Descending Salt Lake Center
10:17PM 44.3522 -108.5464 311° West 348 400 12,700 -1,980 Descending Salt Lake Center
10:18PM 44.4119 -108.6372 313° West 335 386 10,800 -1,380 Descending Salt Lake Center
10:19PM 44.4458 -108.7194 300° West 295 339 9,900 -1,200 Descending Salt Lake Center
10:20PM 44.4558 -108.8350 277° West 262 302 8,400 -1,080 Descending Salt Lake Center
10:21PM 44.4628 -108.9231 276° West 246 283 7,700 -540 Descending Salt Lake Center
10:22PM 44.4642 -108.9944 272° West 215 247 7,400 -480 Descending Salt Lake Center
10:23PM 44.4661 -109.0536 273° West 187 215 6,800 -840 Descending Salt Lake Center
10:24PM 44.5039 -109.0600 353° North 166 191 5,800 -1,020 Descending Salt Lake Center